User: anonymous   Login
Location: Unspecified
(0.0000°N, 0.0000°E)
Time: 06:28:03
(UTC+00:00)
Language:

Amsat-Oscar-6 - Orbit

View from above orbital plane
View from above orbital plane
View from above satellite
View from above satellite

Ground track
Ground track

The orbit data is extracted from the following two-line orbital elements,

1 06236U 72082B   21205.49286128 -.00000048  00000-0 -10029-4 0  9996
2 06236 101.9320 184.9866 0004110 325.8040 151.0212 12.53162313230908
Epoch (UTC): 24 July 2021 11:49:43
Eccentricity: 0.0004110
inclination: 101.9320°
perigee height: 1448 km
apogee height: 1454 km
right ascension of ascending node: 184.9866°
argument of perigee: 325.8040°
revolutions per day: 12.53162313
mean anomaly at epoch: 151.0212°
orbit number at epoch: 23090

The dashed part of the orbit path shows where the satellite is in the earth's shadow,  

DLR